Time,TemperatureF,DewpointF,PressureIn,WindDirection,WindDirectionDegrees,WindSpeedMPH,WindSpeedGustMPH,Humidity,HourlyPrecipIn,Conditions,Clouds,dailyrainin,SoftwareType,DateUTC
2013-03-05 00:01:00,21.0,13.0,24.75,SE,132,2.0,5.0,70,0.00,,,0.00,,2013-03-05 07:01:00,
2013-03-05 00:11:00,21.0,13.0,24.75,SE,132,2.0,5.0,70,0.00,,,0.00,,2013-03-05 07:11:00,
2013-03-05 00:22:00,21.0,13.0,24.75,SSE,150,3.0,5.0,72,0.00,,,0.00,,2013-03-05 07:22:00,
2013-03-05 00:31:00,21.0,13.0,24.75,SSE,161,2.0,5.0,71,0.00,,,0.00,,2013-03-05 07:31:00,
2013-03-05 00:41:00,21.0,13.0,24.75,SSE,161,2.0,5.0,71,0.00,,,0.00,,2013-03-05 07:41:00,
2013-03-05 00:51:00,21.0,12.0,24.76,South,180,1.0,6.0,68,0.00,,,0.00,,2013-03-05 07:51:00,
2013-03-05 01:02:00,21.0,12.0,24.76,South,190,1.0,6.0,67,0.00,,,0.00,,2013-03-05 08:02:00,
2013-03-05 01:11:00,21.0,12.0,24.76,South,190,1.0,6.0,67,0.00,,,0.00,,2013-03-05 08:11:00,
2013-03-05 01:21:00,21.0,11.0,24.76,SSE,163,1.0,4.0,66,0.00,,,0.00,,2013-03-05 08:21:00,
2013-03-05 01:31:00,21.0,11.0,24.77,South,186,1.0,4.0,65,0.00,,,0.00,,2013-03-05 08:31:00,
2013-03-05 01:41:00,21.0,11.0,24.77,South,186,1.0,4.0,65,0.00,,,0.00,,2013-03-05 08:41:00,
2013-03-05 01:52:00,21.0,11.0,24.77,South,171,0.0,2.0,65,0.00,,,0.00,,2013-03-05 08:52:00,
2013-03-05 02:01:00,18.0,10.0,24.77,ESE,108,0.0,3.0,71,0.00,,,0.00,,2013-03-05 09:01:00,
2013-03-05 02:11:00,18.0,10.0,24.77,ESE,108,0.0,3.0,71,0.00,,,0.00,,2013-03-05 09:11:00,
2013-03-05 02:21:00,18.0,12.0,24.76,NE,44,2.0,5.0,76,0.00,,,0.00,,2013-03-05 09:21:00,
2013-03-05 02:31:00,17.0,11.0,24.76,ENE,76,0.0,3.0,76,0.00,,,0.00,,2013-03-05 09:31:00,
2013-03-05 02:42:00,17.0,11.0,24.76,ENE,76,0.0,3.0,76,0.00,,,0.00,,2013-03-05 09:42:00,
2013-03-05 02:52:00,17.0,11.0,24.76,ENE,76,0.0,3.0,76,0.00,,,0.00,,2013-03-05 09:52:00,
2013-03-05 03:01:00,17.0,11.0,24.76,ENE,76,0.0,3.0,76,0.00,,,0.00,,2013-03-05 10:01:00,
2013-03-05 03:11:00,17.0,11.0,24.76,ENE,76,0.0,3.0,76,0.00,,,0.00,,2013-03-05 10:11:00,
2013-03-05 03:22:00,15.0,9.0,24.75,SE,135,0.0,1.0,78,0.00,,,0.00,,2013-03-05 10:22:00,
2013-03-05 03:32:00,15.0,10.0,24.75,SE,135,0.0,2.0,79,0.00,,,0.00,,2013-03-05 10:32:00,
2013-03-05 03:42:00,15.0,10.0,24.75,SE,135,0.0,2.0,79,0.00,,,0.00,,2013-03-05 10:42:00,
2013-03-05 03:52:00,15.0,10.0,24.75,East,87,1.0,3.0,80,0.00,,,0.00,,2013-03-05 10:52:00,
2013-03-05 04:01:00,15.0,10.0,24.75,ESE,115,0.0,3.0,80,0.00,,,0.00,,2013-03-05 11:01:00,
2013-03-05 04:11:00,15.0,10.0,24.75,ESE,115,0.0,3.0,80,0.00,,,0.00,,2013-03-05 11:11:00,
2013-03-05 04:22:00,14.0,9.0,24.75,ESE,115,0.0,2.0,81,0.00,,,0.00,,2013-03-05 11:22:00,
2013-03-05 04:32:00,14.0,9.0,24.76,ESE,115,0.0,1.0,81,0.00,,,0.00,,2013-03-05 11:32:00,
2013-03-05 04:42:00,14.0,9.0,24.76,ESE,115,0.0,1.0,81,0.00,,,0.00,,2013-03-05 11:42:00,
2013-03-05 04:52:00,14.0,10.0,24.76,ESE,115,0.0,1.0,82,0.00,,,0.00,,2013-03-05 11:52:00,
2013-03-05 05:02:00,13.0,9.0,24.77,SSE,156,0.0,1.0,82,0.00,,,0.00,,2013-03-05 12:02:00,
2013-03-05 05:12:00,13.0,9.0,24.77,SSE,156,0.0,1.0,82,0.00,,,0.00,,2013-03-05 12:12:00,
2013-03-05 05:22:00,14.0,10.0,24.77,SSE,156,0.0,2.0,82,0.00,,,0.00,,2013-03-05 12:22:00,
2013-03-05 05:32:00,13.0,9.0,24.77,SSE,156,0.0,1.0,83,0.00,,,0.00,,2013-03-05 12:32:00,
2013-03-05 05:42:00,13.0,9.0,24.77,SSE,156,0.0,1.0,83,0.00,,,0.00,,2013-03-05 12:42:00,
2013-03-05 05:52:00,12.0,8.0,24.77,SW,223,0.0,2.0,84,0.00,,,0.00,,2013-03-05 12:52:00,
2013-03-05 06:02:00,12.0,8.0,24.77,SW,223,0.0,1.0,83,0.00,,,0.00,,2013-03-05 13:02:00,
2013-03-05 06:11:00,12.0,8.0,24.77,SW,223,0.0,1.0,83,0.00,,,0.00,,2013-03-05 13:11:00,
2013-03-05 06:21:00,12.0,8.0,24.77,SW,223,0.0,1.0,84,0.00,,,0.00,,2013-03-05 13:21:00,
2013-03-05 06:32:00,12.0,8.0,24.77,SE,134,1.0,3.0,85,0.00,,,0.00,,2013-03-05 13:32:00,
2013-03-05 06:42:00,12.0,8.0,24.77,SE,134,1.0,3.0,85,0.00,,,0.00,,2013-03-05 13:42:00,
2013-03-05 06:52:00,11.0,7.0,24.77,SE,134,0.0,1.0,84,0.00,,,0.00,,2013-03-05 13:52:00,
2013-03-05 07:02:00,12.0,8.0,24.77,SE,134,0.0,1.0,85,0.00,,,0.00,,2013-03-05 14:02:00,
2013-03-05 07:11:00,12.0,8.0,24.77,SE,134,0.0,1.0,85,0.00,,,0.00,,2013-03-05 14:11:00,
2013-03-05 07:21:00,13.0,9.0,24.77,SE,134,0.0,2.0,85,0.00,,,0.00,,2013-03-05 14:21:00,
2013-03-05 07:32:00,14.0,10.0,24.77,SE,134,0.0,1.0,85,0.00,,,0.00,,2013-03-05 14:32:00,
2013-03-05 07:42:00,14.0,10.0,24.77,SE,134,0.0,1.0,85,0.00,,,0.00,,2013-03-05 14:42:00,
2013-03-05 07:52:00,15.0,11.0,24.78,SE,134,0.0,2.0,83,0.00,,,0.00,,2013-03-05 14:52:00,
2013-03-05 08:01:00,17.0,12.0,24.77,NNE,17,0.0,3.0,81,0.00,,,0.00,,2013-03-05 15:01:00,
2013-03-05 08:11:00,17.0,12.0,24.77,NNE,17,0.0,3.0,81,0.00,,,0.00,,2013-03-05 15:11:00,
2013-03-05 08:21:00,18.0,12.0,24.78,NNE,17,0.0,1.0,76,0.00,,,0.00,,2013-03-05 15:21:00,
2013-03-05 08:32:00,20.0,12.0,24.77,NNE,17,0.0,3.0,72,0.00,,,0.00,,2013-03-05 15:32:00,
2013-03-05 08:42:00,20.0,12.0,24.77,NNE,17,0.0,3.0,72,0.00,,,0.00,,2013-03-05 15:42:00,
2013-03-05 08:52:00,21.0,11.0,24.78,NNE,17,0.0,2.0,66,0.00,,,0.00,,2013-03-05 15:52:00,
2013-03-05 09:01:00,22.0,11.0,24.78,NNE,17,0.0,2.0,63,0.00,,,0.00,,2013-03-05 16:01:00,
2013-03-05 09:11:00,22.0,11.0,24.78,NNE,17,0.0,2.0,63,0.00,,,0.00,,2013-03-05 16:11:00,
2013-03-05 09:21:00,24.0,13.0,24.78,NE,46,0.0,3.0,62,0.00,,,0.00,,2013-03-05 16:21:00,
2013-03-05 09:32:00,24.0,11.0,24.77,ESE,108,0.0,3.0,58,0.00,,,0.00,,2013-03-05 16:32:00,
2013-03-05 09:42:00,24.0,11.0,24.77,ESE,108,0.0,3.0,58,0.00,,,0.00,,2013-03-05 16:42:00,
2013-03-05 09:52:00,26.0,12.0,24.77,WNW,300,0.0,3.0,55,0.00,,,0.00,,2013-03-05 16:52:00,
2013-03-05 10:01:00,27.0,13.0,24.77,North,7,3.0,5.0,54,0.00,,,0.00,,2013-03-05 17:01:00,
2013-03-05 10:11:00,27.0,13.0,24.77,North,7,3.0,5.0,54,0.00,,,0.00,,2013-03-05 17:11:00,
2013-03-05 10:21:00,29.0,14.0,24.76,North,1,2.0,7.0,52,0.00,,,0.00,,2013-03-05 17:21:00,
2013-03-05 10:32:00,31.0,17.0,24.76,NW,315,2.0,5.0,56,0.00,,,0.00,,2013-03-05 17:32:00,
2013-03-05 10:42:00,31.0,17.0,24.76,NW,315,2.0,5.0,56,0.00,,,0.00,,2013-03-05 17:42:00,
2013-03-05 10:52:00,31.0,13.0,24.76,North,351,2.0,7.0,46,0.00,,,0.00,,2013-03-05 17:52:00,
2013-03-05 11:01:00,33.0,14.0,24.76,North,354,2.0,5.0,45,0.00,,,0.00,,2013-03-05 18:01:00,
2013-03-05 11:11:00,33.0,14.0,24.76,North,354,2.0,5.0,45,0.00,,,0.00,,2013-03-05 18:11:00,
2013-03-05 11:22:00,33.0,14.0,24.76,North,354,2.0,5.0,45,0.00,,,0.00,,2013-03-05 18:22:00,
2013-03-05 11:32:00,33.0,16.0,24.76,NW,309,4.0,8.0,49,0.00,,,0.00,,2013-03-05 18:32:00,
2013-03-05 11:42:00,33.0,16.0,24.76,NW,309,4.0,8.0,49,0.00,,,0.00,,2013-03-05 18:42:00,
2013-03-05 11:53:00,32.0,16.0,24.76,North,349,5.0,10.0,52,0.00,,,0.00,,2013-03-05 18:53:00,
2013-03-05 12:01:00,33.0,18.0,24.76,North,6,3.0,8.0,54,0.00,,,0.00,,2013-03-05 19:01:00,
2013-03-05 12:11:00,33.0,18.0,24.76,North,6,3.0,8.0,54,0.00,,,0.00,,2013-03-05 19:11:00,
2013-03-05 12:21:00,33.0,17.0,24.75,NNE,13,6.0,12.0,52,0.00,,,0.00,,2013-03-05 19:21:00,
2013-03-05 12:32:00,34.0,17.0,24.75,NNE,15,3.0,9.0,50,0.00,,,0.00,,2013-03-05 19:32:00,
2013-03-05 12:42:00,34.0,17.0,24.75,NNE,15,3.0,9.0,50,0.00,,,0.00,,2013-03-05 19:42:00,
2013-03-05 12:52:00,34.0,16.0,24.75,NNE,28,2.0,10.0,48,0.00,,,0.00,,2013-03-05 19:52:00,
2013-03-05 13:01:00,34.0,16.0,24.75,North,357,4.0,11.0,48,0.00,,,0.00,,2013-03-05 20:01:00,
2013-03-05 13:11:00,35.0,18.0,24.74,NNW,327,4.0,12.0,50,0.00,,,0.00,,2013-03-05 20:11:00,
2013-03-05 13:21:00,35.0,18.0,24.74,NNW,327,4.0,12.0,50,0.00,,,0.00,,2013-03-05 20:21:00,
2013-03-05 13:32:00,35.0,16.0,24.73,NNW,344,6.0,11.0,46,0.00,,,0.00,,2013-03-05 20:32:00,
2013-03-05 13:42:00,35.0,16.0,24.73,NNW,344,6.0,11.0,46,0.00,,,0.00,,2013-03-05 20:42:00,
2013-03-05 13:52:00,36.0,18.0,24.73,North,2,4.0,10.0,47,0.00,,,0.00,,2013-03-05 20:52:00,
2013-03-05 14:02:00,36.0,19.0,24.73,NNW,347,3.0,10.0,49,0.00,,,0.00,,2013-03-05 21:02:00,
2013-03-05 14:11:00,36.0,19.0,24.73,NNW,347,3.0,10.0,49,0.00,,,0.00,,2013-03-05 21:11:00,
2013-03-05 14:21:00,37.0,21.0,24.72,North,3,5.0,8.0,51,0.00,,,0.00,,2013-03-05 21:21:00,
2013-03-05 14:31:00,37.0,19.0,24.72,North,3,4.0,8.0,47,0.00,,,0.00,,2013-03-05 21:31:00,
2013-03-05 14:42:00,37.0,19.0,24.72,North,3,4.0,8.0,47,0.00,,,0.00,,2013-03-05 21:42:00,
2013-03-05 14:52:00,38.0,20.0,24.72,NNW,336,0.0,7.0,47,0.00,,,0.00,,2013-03-05 21:52:00,
2013-03-05 15:01:00,38.0,20.0,24.72,NNW,330,4.0,9.0,48,0.00,,,0.00,,2013-03-05 22:01:00,
2013-03-05 15:11:00,38.0,20.0,24.72,NNW,330,4.0,9.0,48,0.00,,,0.00,,2013-03-05 22:11:00,
2013-03-05 15:22:00,38.0,19.0,24.72,North,11,3.0,10.0,46,0.00,,,0.00,,2013-03-05 22:22:00,
2013-03-05 15:32:00,39.0,19.0,24.71,North,5,2.0,5.0,45,0.00,,,0.00,,2013-03-05 22:32:00,
2013-03-05 15:42:00,39.0,19.0,24.71,North,5,2.0,5.0,45,0.00,,,0.00,,2013-03-05 22:42:00,
2013-03-05 15:52:00,39.0,18.0,24.72,NNE,16,3.0,8.0,43,0.00,,,0.00,,2013-03-05 22:52:00,
2013-03-05 16:01:00,39.0,19.0,24.71,NNE,19,2.0,7.0,44,0.00,,,0.00,,2013-03-05 23:01:00,
2013-03-05 16:11:00,39.0,19.0,24.71,NNE,19,2.0,7.0,44,0.00,,,0.00,,2013-03-05 23:11:00,
2013-03-05 16:21:00,39.0,20.0,24.71,WNW,298,1.0,5.0,47,0.00,,,0.00,,2013-03-05 23:21:00,
2013-03-05 16:32:00,38.0,19.0,24.70,North,350,1.0,8.0,46,0.00,,,0.00,,2013-03-05 23:32:00,
2013-03-05 16:42:00,38.0,19.0,24.70,North,350,1.0,8.0,46,0.00,,,0.00,,2013-03-05 23:42:00,
2013-03-05 16:53:00,39.0,19.0,24.70,NW,305,0.0,5.0,44,0.00,,,0.00,,2013-03-05 23:53:00,
2013-03-05 17:01:00,39.0,19.0,24.70,NW,307,0.0,5.0,44,0.00,,,0.00,,2013-03-06 00:01:00,
2013-03-05 17:11:00,39.0,19.0,24.70,NW,307,0.0,5.0,44,0.00,,,0.00,,2013-03-06 00:11:00,
2013-03-05 17:21:00,38.0,19.0,24.70,NNW,347,1.0,5.0,45,0.00,,,0.00,,2013-03-06 00:21:00,
2013-03-05 17:32:00,38.0,19.0,24.70,NNW,347,1.0,5.0,45,0.00,,,0.00,,2013-03-06 00:32:00,
2013-03-05 17:42:00,38.0,19.0,24.70,NNW,347,1.0,5.0,45,0.00,,,0.00,,2013-03-06 00:42:00,
2013-03-05 17:52:00,37.0,19.0,24.70,NW,317,1.0,5.0,48,0.00,,,0.00,,2013-03-06 00:52:00,
2013-03-05 18:01:00,36.0,19.0,24.70,NW,319,1.0,3.0,50,0.00,,,0.00,,2013-03-06 01:01:00,
2013-03-05 18:11:00,36.0,19.0,24.70,NW,319,1.0,3.0,50,0.00,,,0.00,,2013-03-06 01:11:00,
2013-03-05 18:21:00,36.0,19.0,24.70,NW,319,1.0,3.0,50,0.00,,,0.00,,2013-03-06 01:21:00,
2013-03-05 18:32:00,35.0,20.0,24.70,NW,314,1.0,4.0,54,0.00,,,0.00,,2013-03-06 01:32:00,
2013-03-05 18:42:00,35.0,20.0,24.70,NW,314,1.0,4.0,54,0.00,,,0.00,,2013-03-06 01:42:00,
2013-03-05 18:52:00,34.0,20.0,24.70,NNW,345,0.0,2.0,55,0.00,,,0.00,,2013-03-06 01:52:00,
2013-03-05 19:01:00,33.0,19.0,24.70,NNW,345,0.0,1.0,56,0.00,,,0.00,,2013-03-06 02:01:00,
2013-03-05 19:11:00,33.0,19.0,24.70,NNW,345,0.0,1.0,56,0.00,,,0.00,,2013-03-06 02:11:00,
2013-03-05 19:22:00,33.0,20.0,24.70,NNW,345,0.0,1.0,58,0.00,,,0.00,,2013-03-06 02:22:00,
2013-03-05 19:32:00,32.0,19.0,24.71,NNW,345,0.0,1.0,59,0.00,,,0.00,,2013-03-06 02:32:00,
2013-03-05 19:42:00,32.0,19.0,24.71,NNW,345,0.0,1.0,59,0.00,,,0.00,,2013-03-06 02:42:00,
2013-03-05 19:52:00,32.0,20.0,24.70,NNW,345,0.0,2.0,61,0.00,,,0.00,,2013-03-06 02:52:00,
2013-03-05 20:01:00,31.0,20.0,24.70,NNW,345,1.0,2.0,64,0.00,,,0.00,,2013-03-06 03:01:00,
2013-03-05 20:11:00,31.0,20.0,24.70,NNW,345,1.0,2.0,64,0.00,,,0.00,,2013-03-06 03:11:00,
2013-03-05 20:22:00,30.0,20.0,24.70,WSW,237,1.0,3.0,66,0.00,,,0.00,,2013-03-06 03:22:00,
2013-03-05 20:32:00,30.0,20.0,24.70,WSW,237,1.0,3.0,66,0.00,,,0.00,,2013-03-06 03:32:00,
2013-03-05 20:42:00,30.0,20.0,24.70,WSW,237,1.0,3.0,66,0.00,,,0.00,,2013-03-06 03:42:00,
2013-03-05 20:52:00,29.0,20.0,24.70,WSW,237,0.0,1.0,68,0.00,,,0.00,,2013-03-06 03:52:00,
2013-03-05 21:02:00,29.0,21.0,24.70,WSW,237,0.0,0.0,71,0.00,,,0.00,,2013-03-06 04:02:00,
2013-03-05 21:11:00,29.0,21.0,24.70,WSW,237,0.0,0.0,71,0.00,,,0.00,,2013-03-06 04:11:00,
2013-03-05 21:21:00,27.0,19.0,24.70,WSW,237,0.0,1.0,72,0.00,,,0.00,,2013-03-06 04:21:00,
2013-03-05 21:32:00,27.0,20.0,24.70,WSW,237,0.0,1.0,74,0.00,,,0.00,,2013-03-06 04:32:00,
2013-03-05 21:41:00,27.0,20.0,24.70,WSW,237,0.0,1.0,74,0.00,,,0.00,,2013-03-06 04:41:00,
2013-03-05 21:52:00,27.0,20.0,24.70,WSW,237,0.0,1.0,74,0.00,,,0.00,,2013-03-06 04:52:00,
2013-03-05 22:01:00,26.0,19.0,24.70,WSW,237,0.0,2.0,76,0.00,,,0.00,,2013-03-06 05:01:00,
2013-03-05 22:11:00,26.0,19.0,24.70,WSW,237,0.0,2.0,76,0.00,,,0.00,,2013-03-06 05:11:00,
2013-03-05 22:22:00,25.0,19.0,24.70,WSW,237,1.0,2.0,78,0.00,,,0.00,,2013-03-06 05:22:00,
2013-03-05 22:32:00,25.0,19.0,24.70,WSW,237,0.0,1.0,77,0.00,,,0.00,,2013-03-06 05:32:00,
2013-03-05 22:42:00,25.0,19.0,24.70,WSW,237,0.0,1.0,77,0.00,,,0.00,,2013-03-06 05:42:00,
2013-03-05 22:52:00,25.0,19.0,24.69,WSW,237,1.0,2.0,77,0.00,,,0.00,,2013-03-06 05:52:00,
2013-03-05 23:02:00,25.0,19.0,24.69,WSW,237,0.0,1.0,78,0.00,,,0.00,,2013-03-06 06:02:00,
2013-03-05 23:11:00,25.0,19.0,24.69,WSW,237,0.0,1.0,78,0.00,,,0.00,,2013-03-06 06:11:00,
2013-03-05 23:22:00,24.0,19.0,24.68,WSW,237,0.0,1.0,80,0.00,,,0.00,,2013-03-06 06:22:00,
2013-03-05 23:32:00,24.0,19.0,24.68,WSW,237,0.0,1.0,81,0.00,,,0.00,,2013-03-06 06:32:00,
2013-03-05 23:42:00,24.0,19.0,24.68,WSW,237,0.0,1.0,81,0.00,,,0.00,,2013-03-06 06:42:00,
2013-03-05 23:52:00,23.0,18.0,24.68,WSW,237,0.0,0.0,82,0.00,,,0.00,,2013-03-06 06:52:00,